When you browse on this site, cookies collect data to enhance your experience and personalize the content and advertising you see.
Visit our Privacy Policy to learn more. By continuing to use the site, you agree to this use of cookies and data.
  • In Czech Republic
  • List of Countries
  • For 7 days
  • Water Temperature
  • Satellite Maps
  • Weather Map
  • Weather Widgets
  • user-avatar
    Login

    Hourly Weather Ushachi

    Today, 19 February, Tuesday

    Time Temperature Precipitation Wind Pressure Humidity
    00:00 -4°C° 0 mm 3 mps 753 mmHg 75%
    01:00 -4°C° 0 mm 3 mps 752 mmHg 74%
    02:00 -4°C° 0 mm 3 mps 752 mmHg 73%
    03:00 -4°C° 0 mm 4 mps 752 mmHg 73%
    04:00 -4°C° 0 mm 4 mps 751 mmHg 73%
    05:00 -5°C° 0 mm 4 mps 750 mmHg 73%
    06:00 -4°C° 0 mm 4 mps 750 mmHg 74%
    07:00 -4°C° 0 mm 4 mps 750 mmHg 76%
    08:00 -4°C° 0 mm 4 mps 749 mmHg 77%
    09:00 -4°C° 0 mm 5 mps 749 mmHg 76%
    10:00 -1°C° 0 mm 5 mps 748 mmHg 75%
    11:00 0°C° 0 mm 5 mps 747 mmHg 74%
    12:00 +1°C° 0 mm 5 mps 747 mmHg 74%
    13:00 +2°C° 0 mm 5 mps 746 mmHg 75%
    14:00 +2°C° 0 mm 5 mps 745 mmHg 76%
    15:00 +1°C° 0 mm 5 mps 745 mmHg 80%
    16:00 +1°C° 0 mm 5 mps 744 mmHg 84%
    17:00 0°C° 0 mm 5 mps 743 mmHg 88%
    18:00 0°C° 0 mm 5 mps 743 mmHg 88%
    19:00 0°C° 0 mm 5 mps 742 mmHg 89%
    20:00 0°C° 0 mm 5 mps 741 mmHg 89%
    21:00 0°C° 0 mm 5 mps 741 mmHg 88%
    22:00 0°C° 0 mm 5 mps 740 mmHg 88%
    23:00 0°C° 0 mm 5 mps 740 mmHg 87%

    Tomorrow, 20 February, Wednesday

    Time Temperature Precipitation Wind Pressure Humidity
    00:00 0°C° 0 mm 5 mps 740 mmHg 88%
    01:00 0°C° 0 mm 5 mps 740 mmHg 89%
    02:00 0°C° 0 mm 4 mps 740 mmHg 90%
    03:00 0°C° 0 mm 4 mps 739 mmHg 91%
    04:00 0°C° 0 mm 4 mps 739 mmHg 91%
    05:00 0°C° 0 mm 4 mps 739 mmHg 91%
    06:00 0°C° 0 mm 4 mps 739 mmHg 91%
    07:00 0°C° 0 mm 5 mps 739 mmHg 91%
    08:00 0°C° 0 mm 5 mps 739 mmHg 91%
    09:00 +1°C° 0.1 mm 5 mps 739 mmHg 88%
    10:00 +1°C° 0.1 mm 5 mps 739 mmHg 86%
    11:00 +1°C° 0.1 mm 5 mps 739 mmHg 83%
    12:00 +2°C° 0.1 mm 5 mps 739 mmHg 81%
    13:00 +2°C° 0.1 mm 6 mps 738 mmHg 79%
    14:00 +2°C° 0.1 mm 6 mps 738 mmHg 77%
    15:00 +1°C° 0.2 mm 6 mps 738 mmHg 80%
    16:00 +1°C° 0.2 mm 6 mps 738 mmHg 82%
    17:00 +1°C° 0.2 mm 6 mps 738 mmHg 85%
    18:00 -1°C° 0.2 mm 6 mps 738 mmHg 80%
    19:00 -2°C° 0.2 mm 7 mps 739 mmHg 76%
    20:00 -3°C° 0.2 mm 7 mps 739 mmHg 71%
    21:00 -4°C° 0 mm 7 mps 739 mmHg 71%
    22:00 -4°C° 0 mm 7 mps 740 mmHg 72%
    23:00 -4°C° 0 mm 7 mps 740 mmHg 72%

    Day after tomorrow, 21 February, Thursday

    Time Temperature Precipitation Wind Pressure Humidity
    00:00 -6°C° 0 mm 7 mps 741 mmHg 71%
    01:00 -6°C° 0 mm 7 mps 741 mmHg 71%
    02:00 -6°C° 0 mm 7 mps 741 mmHg 70%
    03:00 -6°C° 0 mm 7 mps 742 mmHg 70%
    04:00 -6°C° 0 mm 7 mps 742 mmHg 70%
    05:00 -6°C° 0 mm 7 mps 742 mmHg 70%
    06:00 -7°C° 0 mm 7 mps 743 mmHg 68%
    07:00 -7°C° 0 mm 7 mps 743 mmHg 67%
    08:00 -7°C° 0 mm 7 mps 744 mmHg 65%
    09:00 -7°C° 0 mm 7 mps 744 mmHg 64%
    10:00 -7°C° 0 mm 7 mps 745 mmHg 62%
    11:00 -8°C° 0 mm 7 mps 745 mmHg 61%
    12:00 -6°C° 0 mm 6 mps 746 mmHg 59%
    13:00 -6°C° 0 mm 6 mps 746 mmHg 58%
    14:00 -6°C° 0 mm 6 mps 747 mmHg 56%
    15:00 -6°C° 0 mm 6 mps 747 mmHg 58%
    16:00 -6°C° 0 mm 6 mps 747 mmHg 59%
    17:00 -6°C° 0 mm 6 mps 748 mmHg 60%
    18:00 -6°C° 0 mm 5 mps 748 mmHg 62%
    19:00 -7°C° 0 mm 5 mps 749 mmHg 63%
    20:00 -7°C° 0 mm 5 mps 750 mmHg 64%
    21:00 -7°C° 0 mm 5 mps 750 mmHg 64%
    22:00 -7°C° 0 mm 5 mps 751 mmHg 65%
    23:00 -7°C° 0 mm 5 mps 751 mmHg 65%

    22 February, Friday

    Time Temperature Precipitation Wind Pressure Humidity
    00:00 -8°C° 0 mm 5 mps 752 mmHg 64%
    01:00 -10°C° 0 mm 5 mps 752 mmHg 63%
    02:00 -10°C° 0 mm 5 mps 753 mmHg 62%
    03:00 -11°C° 0 mm 5 mps 754 mmHg 61%
    04:00 -11°C° 0 mm 6 mps 754 mmHg 61%
    05:00 -11°C° 0 mm 6 mps 755 mmHg 60%
    06:00 -12°C° 0 mm 6 mps 756 mmHg 60%
    07:00 -12°C° 0 mm 6 mps 757 mmHg 59%
    08:00 -12°C° 0 mm 6 mps 758 mmHg 58%
    09:00 -11°C° 0 mm 6 mps 759 mmHg 56%
    10:00 -11°C° 0 mm 5 mps 759 mmHg 54%
    11:00 -10°C° 0 mm 5 mps 760 mmHg 52%
    12:00 -8°C° 0 mm 5 mps 760 mmHg 50%
    13:00 -8°C° 0 mm 5 mps 760 mmHg 48%
    14:00 -7°C° 0 mm 5 mps 760 mmHg 46%
    15:00 -7°C° 0 mm 5 mps 761 mmHg 47%
    16:00 -7°C° 0 mm 5 mps 761 mmHg 47%
    17:00 -8°C° 0 mm 5 mps 761 mmHg 48%
    18:00 -8°C° 0 mm 5 mps 761 mmHg 52%
    19:00 -8°C° 0 mm 5 mps 761 mmHg 56%
    20:00 -8°C° 0 mm 5 mps 761 mmHg 60%
    21:00 -10°C° 0 mm 5 mps 762 mmHg 64%
    22:00 -10°C° 0 mm 5 mps 762 mmHg 68%
    23:00 -9°C° 0 mm 4 mps 762 mmHg 72%

    23 February, Saturday

    Time Temperature Precipitation Wind Pressure Humidity
    00:00 -9°C° 0 mm 4 mps 762 mmHg 73%
    01:00 -9°C° 0 mm 4 mps 763 mmHg 74%
    02:00 -8°C° 0 mm 3 mps 763 mmHg 74%
    03:00 -9°C° 0 mm 3 mps 763 mmHg 75%
    04:00 -9°C° 0 mm 3 mps 763 mmHg 77%
    05:00 -8°C° 0 mm 2 mps 763 mmHg 78%
    06:00 -8°C° 0 mm 2 mps 763 mmHg 78%
    07:00 -8°C° 0 mm 2 mps 763 mmHg 78%
    08:00 -8°C° 0 mm 2 mps 763 mmHg 78%
    09:00 -7°C° 0 mm 2 mps 762 mmHg 74%
    10:00 -7°C° 0 mm 2 mps 762 mmHg 71%
    11:00 -6°C° 0 mm 2 mps 762 mmHg 67%
    12:00 -6°C° 0 mm 2 mps 762 mmHg 66%
    13:00 -5°C° 0 mm 2 mps 761 mmHg 65%
    14:00 -5°C° 0 mm 2 mps 761 mmHg 65%
    15:00 -5°C° 0.1 mm 2 mps 761 mmHg 69%
    16:00 -3°C° 0.1 mm 1 mps 760 mmHg 73%
    17:00 -3°C° 0.1 mm 1 mps 760 mmHg 77%
    18:00 -3°C° 0.1 mm 1 mps 760 mmHg 80%
    19:00 -3°C° 0.1 mm 1 mps 760 mmHg 82%
    20:00 -3°C° 0.1 mm 1 mps 760 mmHg 85%
    21:00 -3°C° 0 mm 1 mps 761 mmHg 86%
    22:00 -4°C° 0 mm 1 mps 761 mmHg 88%
    23:00 -4°C° 0 mm 1 mps 761 mmHg 89%

    24 February, Sunday

    Time Temperature Precipitation Wind Pressure Humidity
    00:00 -6°C° 0 mm 2 mps 761 mmHg 89%
    01:00 -6°C° 0 mm 2 mps 762 mmHg 90%
    02:00 -7°C° 0 mm 2 mps 762 mmHg 90%
    03:00 -7°C° 0 mm 2 mps 762 mmHg 90%
    04:00 -6°C° 0 mm 1 mps 762 mmHg 90%
    05:00 -6°C° 0 mm 1 mps 763 mmHg 90%
    06:00 -6°C° 0 mm 1 mps 763 mmHg 89%
    07:00 -6°C° 0 mm 1 mps 763 mmHg 87%
    08:00 -7°C° 0 mm 2 mps 763 mmHg 86%
    09:00 -6°C° 0 mm 2 mps 763 mmHg 80%
    10:00 -5°C° 0 mm 2 mps 764 mmHg 75%
    11:00 -4°C° 0 mm 2 mps 764 mmHg 69%
    12:00 -3°C° 0 mm 2 mps 763 mmHg 67%
    13:00 -3°C° 0 mm 2 mps 763 mmHg 65%
    14:00 -2°C° 0 mm 3 mps 762 mmHg 63%
    15:00 -2°C° 0 mm 2 mps 762 mmHg 67%
    16:00 -2°C° 0 mm 2 mps 761 mmHg 70%
    17:00 -3°C° 0 mm 2 mps 761 mmHg 73%
    18:00 -4°C° 0 mm 3 mps 760 mmHg 77%
    19:00 -4°C° 0 mm 3 mps 760 mmHg 80%
    20:00 -4°C° 0 mm 3 mps 759 mmHg 83%
    21:00 -4°C° 0 mm 4 mps 758 mmHg 84%
    22:00 -4°C° 0 mm 4 mps 758 mmHg 86%
    23:00 -3°C° 0 mm 4 mps 757 mmHg 88%
    Show more